Grant County, OR

4:39 PM PDT on October 22, 2017 (GMT -0700)
Grant County Regional

Weather History for KGCD - January, 2013

Change the Weather History Date:

Tuesday, January 22, 2013

  Actual Average (KBNO) Record (KBNO)
Temperature  
Mean Temperature 36 °F -  
Max Temperature 46 °F 33 °F 55 °F (1948)
Min Temperature 26 °F 16 °F -22 °F (1962)
Degree Days  
Heating Degree Days 29    
Moisture  
Dew Point 16 °F    
Average Humidity 48    
Maximum Humidity 60    
Minimum Humidity 29    
Precipitation  
Precipitation 0.00 in - - ()
Sea Level Pressure  
Sea Level Pressure 30.13 in    
Wind  
Wind Speed 11 mph (East)    
Max Wind Speed 15 mph    
Max Gust Speed -    
Visibility 10 miles    
Events      
Averages and records for this station are not official NWS values.
T = Trace of Precipitation, MM = Missing Value Source: NWS Daily Summary

Daily Weather History Graph

Daily Weather History Graph

Search for Another Location

Airport or City:

Trip Planner

Search our weather history database for the weather conditions in past years. The results will help you decide how hot, cold, wet, or windy it might be!

Date:

Astronomy

Jan. 22, 2013 Rise Set
Actual Time 7:23 AM PST 4:52 PM PST
Civil Twilight 6:51 AM PST 5:23 PM PST
Nautical Twilight 6:16 AM PST 5:59 PM PST
Astronomical Twilight 5:42 AM PST 6:33 PM PST
Moon 1:16 PM PST 3:51 AM PST
Length of Visible Light 10h 31m
Length of Day
9h 28m
Waxing Gibbous, 83% of the Moon is Illuminated
Jan 22
Waxing Gibbous
Jan 26
Full
Feb 3
Last Quarter
Feb 9
New
Feb 17
First Quarter

Hourly Weather History & Observations

Time (PST) Temp. Windchill Dew Point Humidity Pressure Visibility Wind Dir Wind Speed Gust Speed Precip Events Conditions
12:15 AM 28.4 °F 18.0 °F 14.0 °F 55% 30.21 in 10.0 mi East 12.7 mph - N/A   Clear
12:35 AM 30.2 °F 20.8 °F 14.0 °F 51% 30.21 in 10.0 mi East 11.5 mph - N/A   Clear
12:55 AM 28.4 °F 18.5 °F 14.0 °F 55% 30.20 in 10.0 mi East 11.5 mph - N/A   Clear
1:15 AM 28.4 °F 18.5 °F 14.0 °F 55% 30.20 in 10.0 mi East 11.5 mph - N/A   Clear
1:35 AM 26.6 °F 15.2 °F 14.0 °F 59% 30.20 in 10.0 mi East 13.8 mph - N/A   Clear
1:55 AM 28.4 °F 18.5 °F 14.0 °F 55% 30.20 in 10.0 mi East 11.5 mph - N/A   Clear
2:15 AM 30.2 °F 20.2 °F 12.2 °F 47% 30.19 in 10.0 mi East 12.7 mph - N/A   Clear
2:35 AM 30.2 °F 22.6 °F 12.2 °F 47% 30.19 in 10.0 mi ESE 8.1 mph - N/A   Clear
2:55 AM 28.4 °F 18.5 °F 14.0 °F 55% 30.19 in 10.0 mi East 11.5 mph - N/A   Clear
3:15 AM 28.4 °F 19.7 °F 12.2 °F 51% 30.19 in 10.0 mi East 9.2 mph - N/A   Clear
3:35 AM 28.4 °F 19.1 °F 12.2 °F 51% 30.19 in 10.0 mi East 10.4 mph - N/A   Clear
3:55 AM 26.6 °F 16.8 °F 12.2 °F 55% 30.19 in 10.0 mi East 10.4 mph - N/A   Clear
4:15 AM 26.6 °F 16.8 °F 12.2 °F 55% 30.19 in 10.0 mi East 10.4 mph - N/A   Clear
4:35 AM 26.6 °F 21.2 °F 12.2 °F 55% 30.19 in 10.0 mi East 4.6 mph - N/A   Clear
4:55 AM 26.6 °F 15.2 °F 12.2 °F 55% 30.18 in 10.0 mi East 13.8 mph - N/A   Clear
5:15 AM 26.6 °F 14.7 °F 12.2 °F 55% 30.17 in 10.0 mi ENE 15.0 mph - N/A   Clear
5:35 AM 26.6 °F 16.2 °F 12.2 °F 55% 30.18 in 10.0 mi East 11.5 mph - N/A   Clear
5:55 AM 26.6 °F 15.7 °F 12.2 °F 55% 30.18 in 10.0 mi East 12.7 mph - N/A   Clear
6:15 AM 28.4 °F 18.0 °F 12.2 °F 51% 30.17 in 10.0 mi East 12.7 mph - N/A   Clear
6:35 AM 28.4 °F 18.0 °F 12.2 °F 51% 30.17 in 10.0 mi East 12.7 mph - N/A   Clear
6:55 AM 28.4 °F 17.5 °F 12.2 °F 51% 30.17 in 10.0 mi East 13.8 mph - N/A   Clear
7:15 AM 28.4 °F 19.1 °F 12.2 °F 51% 30.17 in 10.0 mi East 10.4 mph - N/A   Clear
7:35 AM 28.4 °F 17.5 °F 12.2 °F 51% 30.16 in 10.0 mi East 13.8 mph - N/A   Clear
7:55 AM 30.2 °F 19.3 °F 12.2 °F 47% 30.16 in 10.0 mi East 15.0 mph - N/A   Clear
8:15 AM 30.2 °F 21.3 °F 12.2 °F 47% 30.16 in 10.0 mi East 10.4 mph - N/A   Clear
8:35 AM 30.2 °F 21.9 °F 12.2 °F 47% 30.16 in 10.0 mi East 9.2 mph - N/A   Clear
8:55 AM 32.0 °F 24.2 °F 12.2 °F 44% 30.16 in 10.0 mi ENE 9.2 mph - N/A   Clear
9:15 AM 32.0 °F 25.6 °F 12.2 °F 44% 30.16 in 10.0 mi ESE 6.9 mph - N/A   Clear
9:35 AM 33.8 °F 25.8 °F 14.0 °F 44% 30.15 in 10.0 mi East 10.4 mph - N/A   Clear
9:55 AM 35.6 °F 28.0 °F 12.2 °F 38% 30.15 in 10.0 mi East 10.4 mph - N/A   Clear
10:15 AM 35.6 °F 28.6 °F 14.0 °F 41% 30.16 in 10.0 mi East 9.2 mph - N/A   Clear
10:35 AM 37.4 °F 31.4 °F 14.0 °F 38% 30.15 in 10.0 mi ESE 8.1 mph - N/A   Clear
10:55 AM 41.0 °F 35.8 °F 14.0 °F 33% 30.15 in 10.0 mi ESE 8.1 mph - N/A   Clear
11:15 AM 42.8 °F 39.3 °F 17.6 °F 36% 30.15 in 10.0 mi NW 5.8 mph - N/A   Clear
11:35 AM 42.8 °F 40.1 °F 17.6 °F 36% 30.14 in 10.0 mi North 4.6 mph - N/A   Clear
11:55 AM 46.4 °F 42.4 °F 15.8 °F 29% 30.13 in 10.0 mi East 8.1 mph - N/A   Clear
12:15 PM 42.8 °F 36.2 °F 15.8 °F 34% 30.12 in 10.0 mi East 12.7 mph - N/A   Clear
12:35 PM 42.8 °F 38.6 °F 19.4 °F 39% 30.12 in 10.0 mi ENE 6.9 mph - N/A   Clear
12:55 PM 42.8 °F 38.0 °F 19.4 °F 39% 30.12 in 10.0 mi ENE 8.1 mph - N/A   Clear
1:15 PM 42.8 °F 35.8 °F 19.4 °F 39% 30.10 in 10.0 mi East 13.8 mph - N/A   Clear
1:35 PM 42.8 °F 36.6 °F 17.6 °F 36% 30.10 in 10.0 mi ENE 11.5 mph - N/A   Clear
1:55 PM 44.6 °F 39.2 °F 19.4 °F 37% 30.10 in 10.0 mi East 10.4 mph - N/A   Clear
2:15 PM 44.6 °F 40.2 °F 19.4 °F 37% 30.10 in 10.0 mi East 8.1 mph - N/A   Clear
2:35 PM 44.6 °F 39.7 °F 19.4 °F 37% 30.10 in 10.0 mi ENE 9.2 mph - N/A   Clear
2:55 PM 44.6 °F 39.7 °F 21.2 °F 39% 30.09 in 10.0 mi ENE 9.2 mph - N/A   Clear
3:15 PM 42.8 °F 37.5 °F 19.4 °F 39% 30.08 in 10.0 mi East 9.2 mph - N/A   Clear
3:35 PM 42.8 °F 36.6 °F 19.4 °F 39% 30.08 in 10.0 mi East 11.5 mph - N/A   Clear
3:55 PM 41.0 °F 34.3 °F 19.4 °F 42% 30.08 in 10.0 mi East 11.5 mph - N/A   Clear
4:15 PM 42.8 °F 37.5 °F 19.4 °F 39% 30.08 in 10.0 mi East 9.2 mph - N/A   Clear
4:35 PM 41.0 °F 33.9 °F 19.4 °F 42% 30.08 in 10.0 mi East 12.7 mph - N/A   Clear
4:55 PM 39.2 °F 32.0 °F 19.4 °F 45% 30.09 in 10.0 mi East 11.5 mph - N/A   Clear
5:15 PM 37.4 °F 30.3 °F 19.4 °F 48% 30.09 in 10.0 mi East 10.4 mph - N/A   Clear
5:35 PM 37.4 °F 30.8 °F 19.4 °F 48% 30.09 in 10.0 mi SE 9.2 mph - N/A   Clear
5:55 PM 37.4 °F 30.3 °F 19.4 °F 48% 30.09 in 10.0 mi East 10.4 mph - N/A   Clear
6:15 PM 37.4 °F 30.8 °F 17.6 °F 45% 30.09 in 10.0 mi ESE 9.2 mph - N/A   Clear
6:35 PM 35.6 °F 29.2 °F 17.6 °F 48% 30.10 in 10.0 mi SE 8.1 mph - N/A   Clear
6:55 PM 35.6 °F 29.2 °F 17.6 °F 48% 30.10 in 10.0 mi East 8.1 mph - N/A   Clear
7:15 PM 35.6 °F 29.2 °F 17.6 °F 48% 30.10 in 10.0 mi East 8.1 mph - N/A   Clear
7:35 PM 33.8 °F 27.7 °F 17.6 °F 52% 30.10 in 10.0 mi East 6.9 mph - N/A   Clear
7:55 PM 33.8 °F 26.4 °F 17.6 °F 52% 30.09 in 10.0 mi East 9.2 mph - N/A   Clear
8:15 PM 32.0 °F 24.8 °F 19.4 °F 60% 30.09 in 10.0 mi East 8.1 mph - N/A   Clear
8:35 PM 32.0 °F 24.2 °F 19.4 °F 60% 30.08 in 10.0 mi East 9.2 mph - N/A   Clear
8:55 PM 32.0 °F 24.2 °F 17.6 °F 55% 30.08 in 10.0 mi East 9.2 mph - N/A   Clear
9:15 PM 32.0 °F 24.2 °F 17.6 °F 55% 30.08 in 10.0 mi East 9.2 mph - N/A   Clear
9:35 PM 32.0 °F 23.6 °F 17.6 °F 55% 30.08 in 10.0 mi East 10.4 mph - N/A   Clear
9:55 PM 32.0 °F 24.2 °F 17.6 °F 55% 30.09 in 10.0 mi East 9.2 mph - N/A   Clear
10:15 PM 33.8 °F 26.4 °F 17.6 °F 52% 30.09 in 10.0 mi SE 9.2 mph - N/A   Clear
10:35 PM 32.0 °F 25.6 °F 17.6 °F 55% 30.09 in 10.0 mi East 6.9 mph - N/A   Clear
10:55 PM 32.0 °F 25.6 °F 17.6 °F 55% 30.09 in 10.0 mi ESE 6.9 mph - N/A   Clear
11:15 PM 32.0 °F 23.0 °F 17.6 °F 55% 30.09 in 10.0 mi East 11.5 mph - N/A   Clear
11:35 PM 32.0 °F 24.8 °F 17.6 °F 55% 30.09 in 10.0 mi East 8.1 mph - N/A   Clear
11:55 PM 32.0 °F 25.6 °F 17.6 °F 55% 30.09 in 10.0 mi East 6.9 mph - N/A   Clear